Location: Vihti�l�
(61.3833°N, 23.0667°E)
Time: 03:42:12
(UTC+00:00)

CZ-4C R/B - Pass Details

Date: 29 November 2020
Orbit: 620 x 1382 km, 63.4° (Epoch: 19 January)

Event Time Altitude Azimuth Distance (km) Brightness Sun altitude
Rises 03:26:07 0° 188° (S) 3,125 5.1 -24.8°
Reaches altitude 10° 03:28:38 10° 175° (S) 2,300 4.5 -24.5°
Maximum altitude 03:32:57 26° 120° (ESE) 1,611 4.2 -23.9°
Drops below altitude 10° 03:37:59 10° 66° (ENE) 2,709 5.7 -23.3°
Sets 03:41:12 0° 55° (NE) 3,804 6.4 -22.9°
